SCP
0 0 0 0 0 0 0 0 0 0 0 0 0 0 0 0 0 0 0 1 1 1 1 1 1 1 1 1 1 1 1 1 1 1 1 2 2 1 1 1 1 1 1
0 0 0 0 0 0 0 0 0 0 0 0 0 0 0 0 0 0 0 1 1 1 1 1 1 1 1 1 1 1 1 1 1 1 1 1 1 1 1 1 1 1 1
0 0 0 0 0 0 0 0 0 0 0 0 0 0 0 0 0 0 0 0 0 1 1 1 1 1 1 1 1 1 2 2 2 1 1 1 1 1 1 1 1 1 1
0 0 0 0 0 0 0 0 0 0 0 0 0 0 0 0 0 0 0 0 0 1 1 1 1 1 1 1 1 1 2 2 2 2 1 1 1 1 1 1 1 1 1
0 0 0 0 0 0 0 0 0 0 0 0 0 0 0 0 0 0 0 0 0 0 1 1 1 1 1 1 1 1 1 1 2 1 1 1 1 1 1 1 1 1 1
0 0 0 0 0 0 0 0 0 0 0 0 0 0 0 0 0 0 0 0 0 0 1 1 1 1 1 1 1 1 1 1 1 1 1 1 1 1 1 1 1 1 0
0 0 0 0 0 0 0 0 0 0 0 0 0 0 0 0 0 0 0 0 0 0 1 1 1 1 1 1 1 1 1 1 1 1 1 1 1 1 1 1 1 0 0
0 0 0 0 0 0 0 0 0 0 0 0 0 0 0 0 0 0 0 0 0 0 1 1 1 1 1 1 1 1 1 1 1 1 1 1 1 1 1 1 0 0 0
0 0 0 0 0 0 0 0 0 0 0 0 0 0 0 0 0 0 0 0 0 0 0 1 1 1 2 1 1 1 1 1 1 1 1 0 1 1 1 1 1 0 0
0 0 0 0 0 0 0 0 0 0 0 0 0 0 0 0 0 0 0 0 0 0 0 0 1 1 2 2 1 1 1 2 1 1 1 1 1 1 1 1 1 0 0
0 0 0 0 0 0 0 0 0 0 0 0 0 0 0 0 0 0 0 0 0 0 0 0 1 1 2 2 1 1 1 2 1 1 1 1 1 1 1 1 1 1 0
0 0 0 0 0 0 0 0 0 0 0 0 0 0 0 0 0 0 0 0 0 0 0 0 0 1 1 2 1 1 1 1 1 1 1 1 1 1 0 0 1 1 1
0 0 0 0 0 0 0 0 0 0 0 0 0 0 0 0 0 0 0 0 0 0 0 0 0 1 1 1 1 1 1 1 1 1 1 1 1 1 0 0 0 0 1
0 0 0 0 0 0 0 0 0 0 0 0 0 0 0 0 0 0 0 0 0 0 0 0 0 0 1 1 1 1 1 1 1 1 1 1 1 1 0 0 0 0 0
0 0 0 0 0 0 0 0 0 0 0 0 0 0 0 0 0 0 0 0 0 0 0 0 0 0 0 1 1 1 1 1 1 1 1 1 1 0 0 0 0 0 0
0 0 0 0 0 0 0 0 0 0 0 0 0 0 0 0 0 0 0 0 0 0 0 0 0 0 0 0 0 1 1 1 1 1 1 1 0 0 0 1 1 0 0
0 0 0 0 0 0 0 0 0 0 0 0 0 0 0 0 0 0 0 0 0 0 0 0 0 0 0 0 0 1 1 1 1 1 1 1 1 0 0 1 1 1 0
0 0 0 0 0 0 0 0 0 0 0 0 0 0 0 0 0 0 0 0 0 0 0 0 0 0 0 0 0 0 1 1 1 1 1 1 1 1 0 0 1 1 1
0 0 0 0 0 0 0 0 0 0 0 0 0 0 0 0 0 0 0 0 0 0 0 0 0 0 0 0 0 0 1 1 1 1 1 1 1 0 0 0 0 1 1
1 1 0 0 0 0 0 0 0 0 0 0 0 0 0 0 0 0 0 0 0 0 0 0 0 0 0 0 0 0 0 0 1 1 1 1 1 0 0 0 0 0 0
1 1 1 1 0 0 0 0 0 0 0 0 0 0 0 0 0 0 0 0 0 0 0 0 0 0 0 0 0 0 0 0 1 1 1 1 1 1 1 0 0 0 0
2 1 1 1 1 0 0 0 0 0 0 0 0 0 0 0 0 0 0 0 0 0 0 0 0 0 0 0 0 0 0 0 0 1 1 1 1 1 1 0 0 0 0
2 2 1 1 1 0 0 0 0 0 0 0 0 0 0 0 0 0 0 0 0 0 0 0 0 0 0 0 0 0 0 0 0 0 0 0 0 1 1 0 0 0 0
2 2 2 1 1 0 0 0 0 0 0 0 0 0 0 0 0 0 0 0 0 0 0 0 0 0 0 0 0 0 0 0 0 0 0 0 0 0 0 0 0 0 0
2 2 2 1 1 1 0 0 0 0 0 0 0 0 0 0 0 0 0 0 0 0 0 0 0 0 0 0 0 0 0 0 0 0 0 0 0 0 0 0 0 0 0
3 2 2 1 1 1 0 0 0 0 0 0 0 0 0 0 0 0 0 0 0 0 0 0 0 0 0 0 0 0 0 0 0 0 0 0 0 0 0 0 0 0 0
Wind_Speed
2 2 2 2 2 2 2 2 2 3 3 4 4 4 4 4 4 3 3 7 8 8 8 8 8 7 8 8 9 9 9 9 10 10 10 9 9 8 8 8 8 8 8
2 2 2 2 2 2 2 2 2 2 2 2 3 4 3 3 4 4 3 5 8 8 8 8 8 8 8 8 9 9 9 10 10 10 10 10 9 9 8 8 8 8 9
2 2 2 2 2 2 2 2 2 2 2 3 3 3 3 3 3 4 4 3 4 7 8 8 8 8 8 8 8 9 10 10 10 10 10 10 9 10 9 9 9 9 9
2 2 2 1 1 2 2 2 2 2 2 3 3 3 2 2 3 3 3 3 3 4 6 8 8 8 7 7 8 9 10 10 10 10 10 10 10 10 10 10 10 10 10
2 2 2 1 2 2 2 2 2 2 2 2 2 2 3 3 2 2 3 3 3 3 3 5 7 7 7 7 7 8 8 8 8 9 9 9 9 9 10 10 10 10 10
3 3 2 2 2 2 2 2 2 2 2 1 3 3 3 2 2 2 2 2 2 2 3 3 3 4 6 6 6 7 6 6 7 7 8 9 9 9 9 9 10 10 10
2 2 2 2 2 2 2 2 2 2 2 1 2 2 3 3 2 2 2 2 2 2 2 2 2 2 2 4 5 5 6 6 6 7 8 8 9 9 9 9 9 9 9
1 2 2 2 1 2 2 2 2 1 1 2 2 2 2 3 3 3 2 2 2 2 2 2 2 2 1 1 3 4 4 5 6 6 7 7 7 8 7 7 8 8 8
1 1 1 1 1 1 1 1 1 2 1 1 1 2 2 1 2 3 2 2 2 2 2 1 1 1 1 1 1 2 3 4 5 5 5 5 6 6 6 6 6 6 6
1 1 1 1 1 1 1 1 1 1 2 1 0 1 1 2 2 1 3 2 2 2 2 2 1 1 0 0 0 2 3 3 4 4 4 5 5 5 5 5 5 5 5
0 1 1 1 1 1 1 1 1 1 1 1 1 1 1 1 1 2 1 3 2 2 1 2 1 1 0 0 0 1 2 2 3 3 3 4 4 4 4 4 4 4 4
1 1 1 1 1 1 2 2 2 2 1 1 1 1 2 2 2 2 2 1 2 2 2 2 1 1 1 1 1 2 2 2 2 3 3 3 3 3 3 3 3 3 3
1 2 2 2 2 2 2 2 2 2 2 2 2 2 2 2 2 2 2 1 1 2 2 2 1 1 1 1 1 2 2 3 3 3 2 2 2 2 2 2 2 2 2
3 3 3 3 3 3 2 2 2 2 2 2 2 2 2 2 2 2 3 3 1 1 2 3 2 1 1 1 1 2 2 3 3 3 3 2 2 2 1 1 1 1 1
2 2 3 3 3 2 2 2 2 2 2 2 2 2 1 1 1 2 2 3 3 2 2 3 2 2 1 1 1 1 1 3 4 3 3 3 2 2 1 1 0 0 1
2 2 2 2 2 2 2 2 2 2 2 2 2 2 1 1 1 1 1 1 2 3 2 2 2 1 1 1 2 1 2 4 4 4 4 3 3 3 2 2 1 0 0
2 2 2 2 2 2 2 2 3 3 3 2 2 2 2 1 1 1 1 1 1 2 2 2 1 1 1 1 1 1 1 2 2 4 4 4 4 4 3 3 2 1 1
3 3 2 2 2 2 2 2 3 3 4 4 3 3 3 2 2 1 2 2 2 2 3 2 1 1 1 1 1 1 1 1 1 4 5 5 4 4 4 3 3 3 2
3 2 2 3 3 3 2 3 3 3 4 4 4 4 4 3 3 2 2 2 2 2 2 2 1 1 1 0 0 0 0 0 1 3 4 5 5 5 4 4 4 4 4
3 3 3 4 4 3 3 3 3 3 3 4 4 4 4 4 4 4 3 3 2 2 2 2 1 1 1 1 1 1 1 1 1 1 1 2 3 5 5 6 6 5 5
4 4 3 3 3 3 3 3 3 3 3 2 3 3 4 4 5 5 3 3 4 2 2 2 2 1 1 1 2 2 2 1 1 1 1 1 2 2 3 5 6 7 7
3 3 3 3 3 3 4 4 4 3 3 3 3 3 3 3 4 6 5 5 6 5 4 3 2 3 3 3 2 2 2 1 2 2 2 2 1 2 3 3 6 7 7
3 3 4 4 4 5 5 5 5 3 3 3 3 2 2 2 3 3 4 4 4 5 6 5 4 4 4 5 4 3 3 3 3 2 3 2 1 3 3 4 7 8 8
3 3 4 4 4 5 5 5 4 3 2 3 3 3 3 3 2 3 2 2 2 4 5 4 5 6 5 4 5 5 5 3 0 1 2 2 2 2 2 3 6 8 8
2 3 3 4 4 5 6 5 3 2 2 2 2 2 3 3 4 3 2 2 2 3 4 5 5 5 4 5 4 3 3 2 2 2 3 2 2 1 2 2 4 6 6
3 3 3 3 4 4 5 4 3 2 2 2 2 2 3 4 4 3 3 3 4 4 2 2 3 4 4 4 6 5 5 4 2 2 3 3 2 2 2 2 2 2 3
Wind_Direction
70 60 53 48 46 47 54 54 57 59 51 51 57 62 51 39 30 24 21 38 47 56 63 64 67 71 76 76 73 75 74 74 72 72 74 74 78 82 83 85 84 85 83
86 76 64 52 47 50 58 66 63 66 55 55 54 56 56 43 33 27 25 24 33 43 51 58 64 72 75 78 77 74 75 76 75 76 74 72 75 79 80 81 84 85 86
96 91 79 59 45 53 64 67 60 61 64 60 50 46 51 46 40 29 28 26 20 32 42 49 58 67 71 76 77 79 78 78 77 77 76 73 75 77 76 79 80 84 85
96 100 90 67 54 63 70 75 66 65 58 57 48 33 30 30 34 33 35 30 25 22 27 40 47 55 62 71 79 80 77 77 82 81 77 76 77 78 75 73 76 80 81
87 93 87 69 64 66 64 78 64 73 77 67 62 44 28 22 14 26 32 28 29 29 25 29 39 48 56 65 74 77 77 77 83 83 80 78 78 78 79 75 76 81 81
81 85 83 72 74 75 62 66 78 62 69 69 67 48 23 12 19 22 11 18 23 25 31 34 30 32 51 60 67 77 77 79 83 83 82 81 81 81 83 82 82 83 84
92 93 85 76 73 84 86 86 85 74 55 47 66 29 5 13 27 13 3 15 12 6 26 36 36 26 28 46 56 75 77 79 84 87 85 82 80 80 82 80 82 84 85
110 107 101 101 90 89 84 75 85 91 50 43 94 82 13 352 354 4 3 10 351 358 9 18 34 32 30 33 33 64 76 84 91 93 91 87 84 81 83 87 86 88 89
129 116 125 120 107 107 126 131 114 122 135 26 65 129 135 228 310 334 357 5 0 0 342 350 19 18 36 41 20 43 76 91 101 99 98 98 94 88 83 86 89 90 90
158 144 149 147 142 138 151 188 134 137 140 145 29 59 139 158 151 323 330 343 352 353 336 331 327 322 19 51 46 82 82 88 104 106 102 104 102 95 88 91 92 91 94
212 190 184 179 181 187 195 192 148 171 169 165 163 146 99 69 128 153 277 319 336 321 308 302 296 292 269 203 208 153 112 101 102 106 104 104 103 103 94 92 99 100 101
273 241 217 213 213 214 213 211 198 191 193 184 181 178 168 169 180 167 194 259 295 303 309 309 292 275 256 235 215 174 153 132 117 106 96 97 98 100 99 95 98 101 110
252 248 234 228 233 233 224 206 200 207 201 200 202 210 207 207 171 165 164 194 257 293 315 315 294 284 255 230 233 198 173 161 149 137 115 100 93 94 96 103 105 103 103
235 242 237 236 235 235 231 209 210 216 205 213 215 209 212 215 192 176 168 158 160 307 309 286 311 289 287 244 236 209 191 181 168 161 150 138 124 104 103 110 104 125 115
245 244 241 240 241 233 226 208 225 231 207 213 216 208 206 221 196 196 182 171 162 198 255 258 267 285 286 257 229 190 197 199 184 180 176 171 164 146 132 105 68 151 166
248 244 253 252 251 242 229 211 223 226 204 217 206 194 213 230 193 178 187 187 175 176 220 248 244 275 276 265 216 193 215 211 199 192 190 189 186 184 179 164 143 84 166
234 230 236 246 257 255 235 216 223 208 202 213 208 197 212 204 192 189 162 165 185 169 204 267 282 317 271 269 283 220 205 214 215 206 202 203 204 204 201 199 194 191 199
228 224 225 234 251 257 238 218 229 215 203 208 212 203 214 198 200 202 186 191 200 187 183 229 268 272 254 255 248 231 228 211 219 220 214 212 210 209 210 213 207 205 209
230 225 216 227 241 247 242 236 229 221 210 211 208 204 212 194 211 212 198 201 207 191 172 183 221 245 279 271 51 295 297 299 250 228 217 214 214 217 217 218 217 217 217
223 226 228 231 236 239 239 233 224 229 221 219 216 209 205 200 212 207 201 204 194 175 164 170 200 224 244 242 150 197 255 279 262 253 233 222 225 229 230 228 225 221 219
231 228 227 239 245 239 235 229 219 215 222 228 226 218 217 215 220 207 203 194 181 178 172 180 198 187 212 187 206 196 205 251 270 225 212 249 233 238 239 241 234 228 222
241 232 226 229 241 250 256 240 223 205 210 216 229 235 234 230 241 228 223 202 185 184 190 188 193 208 221 209 186 179 169 161 256 221 179 240 199 234 241 233 237 234 229
239 239 238 233 240 253 261 249 230 201 203 213 217 230 245 240 232 234 233 222 213 208 193 185 192 213 213 206 181 182 191 196 217 201 165 229 212 241 245 242 242 238 234
233 236 238 237 239 252 256 248 231 202 209 224 221 219 231 252 238 207 200 215 229 229 224 216 218 225 218 202 193 193 194 187 234 213 164 208 221 240 258 245 245 237 233
239 243 243 239 242 253 251 241 218 191 216 242 245 232 229 245 254 206 181 214 250 262 246 232 236 240 231 201 171 145 152 159 222 233 186 190 214 243 261 251 244 239 236
234 243 255 250 246 251 251 233 201 186 214 247 257 253 244 244 259 217 200 209 238 253 254 254 250 253 244 216 189 186 182 182 196 226 196 187 194 178 259 256 246 240 234